User: anonymous   Login
Location: Zagreb
(45.8000°N, 16.0000°E)
Time: 19:38:11
(UTC+02:00)
Language:

Explorer 7 - Orbit

View from above orbital plane
View from above orbital plane
View from above satellite
View from above satellite

Ground track
Ground track

The orbit data is extracted from the following two-line orbital elements,

1    22U 59009A   20221.83349461 -.00000035  00000-0  20933-4 0  9992
2    22  50.2820 216.2884 0139352  98.8729 262.8024 14.95170928233165
Epoch (UTC): 08 August 2020 20:00:13
Eccentricity: 0.0139352
inclination: 50.2820°
perigee height: 485 km
apogee height: 679 km
right ascension of ascending node: 216.2884°
argument of perigee: 98.8729°
revolutions per day: 14.95170928
mean anomaly at epoch: 262.8024°
orbit number at epoch: 23316

The dashed part of the orbit path shows where the satellite is in the earth's shadow,  

DLR